sat.trackr.live / text

‹ back to catalog

STARLINK-3590

NORAD 51867 · 2022-022R

PAYLOAD ACTIVE UNKNOWN

§ Identity

Operator
Country
US
Launch date
2022-03-03
Launch site
AFETR
Launch vehicle
Mass (kg)
RCS (m²)

Purposes: comms

External: N2YO · Heavens-Above · Gunter

§ Orbital elements

Epoch: 2026-05-24T22:30:16.110144Z

Period
95.44 min
Inclination
53.2149°
Eccentricity
0.0001433
Mean motion
15.08839998 rev/d
Perigee alt
538.8 km
Apogee alt
540.7 km
Semi-major
6,917.9 km
B*
2.7249e-5
RAAN
26.8306°
Arg perigee
94.7694°
Mean anomaly
265.3462°
Rev number
23,462

§ Raw data

STARLINK-35901 51867U 22022R   26144.93768646  .00000146  00000+0  27249-4 0  99992 51867  53.2149  26.8306 0001433  94.7694 265.3462 15.08839998234623

JSON: /api/v1/satellites/51867 · /tle

For live sub-satellite position, see the globe view (requires WebGL).

§ Visibility from observer

Set your observer location to see the next 7 days of passes ≥ 10°. The values pass through the URL so the page stays shareable.

No JS? Fill the form by hand. The geolocation button needs JavaScript.